• In Deutschland
  • Länderverzeichnis
  • Für 7 Tage
  • Wassertemperatur
  • Satellitenkarten
  • Wetterkarte
  • Widgets
  • user-avatar
    Anmelden

    Stündliche Wetter Leer

    Heute, 24 Oktober, Dienstag

    Zeit Temperatur Niederschläge Wind Luftdruck Luftfeuchtigkeit
    00:00 +9°C° 0 mm 3 m/S 765 mmHg 95%
    01:00 +10°C° 0 mm 3 m/S 764 mmHg 95%
    02:00 +10°C° 0 mm 3 m/S 764 mmHg 96%
    03:00 +10°C° 0 mm 4 m/S 764 mmHg 96%
    04:00 +10°C° 0,1 mm 4 m/S 764 mmHg 96%
    05:00 +10°C° 0,1 mm 5 m/S 764 mmHg 96%
    06:00 +10°C° 0,1 mm 5 m/S 764 mmHg 95%
    07:00 +11°C° 0,1 mm 6 m/S 764 mmHg 95%
    08:00 +11°C° 0,1 mm 6 m/S 764 mmHg 94%
    09:00 +13°C° 0,1 mm 6 m/S 764 mmHg 94%
    10:00 +13°C° 0,2 mm 6 m/S 764 mmHg 93%
    11:00 +14°C° 0,2 mm 6 m/S 763 mmHg 92%
    12:00 +14°C° 0,2 mm 6 m/S 763 mmHg 92%
    13:00 +14°C° 0,3 mm 6 m/S 763 mmHg 92%
    14:00 +15°C° 0,3 mm 6 m/S 763 mmHg 92%
    15:00 +15°C° 0,3 mm 6 m/S 763 mmHg 92%
    16:00 +15°C° 0,3 mm 6 m/S 763 mmHg 93%
    17:00 +15°C° 0,3 mm 6 m/S 763 mmHg 93%
    18:00 +15°C° 0,3 mm 7 m/S 763 mmHg 94%
    19:00 +15°C° 0,3 mm 7 m/S 763 mmHg 94%
    20:00 +15°C° 0,3 mm 7 m/S 763 mmHg 93%
    21:00 +16°C° 0,3 mm 7 m/S 763 mmHg 93%
    22:00 +16°C° 0,2 mm 7 m/S 762 mmHg 93%
    23:00 +15°C° 0,2 mm 7 m/S 762 mmHg 93%

    Morgen, 25 Oktober, Mittwoch

    Zeit Temperatur Niederschläge Wind Luftdruck Luftfeuchtigkeit
    00:00 +15°C° 0,2 mm 7 m/S 762 mmHg 92%
    01:00 +15°C° 0 mm 7 m/S 762 mmHg 90%
    02:00 +15°C° 0 mm 7 m/S 762 mmHg 88%
    03:00 +15°C° 0 mm 8 m/S 761 mmHg 86%
    04:00 +15°C° 0 mm 8 m/S 761 mmHg 87%
    05:00 +15°C° 0 mm 8 m/S 761 mmHg 89%
    06:00 +13°C° 0 mm 8 m/S 761 mmHg 90%
    07:00 +13°C° 0,1 mm 8 m/S 761 mmHg 89%
    08:00 +15°C° 0,1 mm 9 m/S 762 mmHg 88%
    09:00 +15°C° 0,1 mm 9 m/S 762 mmHg 87%
    10:00 +15°C° 0,1 mm 8 m/S 763 mmHg 87%
    11:00 +15°C° 0,1 mm 7 m/S 763 mmHg 86%
    12:00 +15°C° 0,1 mm 6 m/S 764 mmHg 86%
    13:00 +15°C° 0 mm 5 m/S 764 mmHg 85%
    14:00 +15°C° 0 mm 4 m/S 765 mmHg 84%
    15:00 +15°C° 0 mm 4 m/S 765 mmHg 83%
    16:00 +14°C° 0 mm 4 m/S 765 mmHg 86%
    17:00 +12°C° 0 mm 3 m/S 766 mmHg 88%
    18:00 +11°C° 0 mm 3 m/S 766 mmHg 91%
    19:00 +11°C° 0 mm 3 m/S 766 mmHg 92%
    20:00 +11°C° 0 mm 3 m/S 767 mmHg 92%
    21:00 +10°C° 0 mm 3 m/S 767 mmHg 92%
    22:00 +10°C° 0 mm 3 m/S 767 mmHg 92%
    23:00 +10°C° 0 mm 3 m/S 767 mmHg 92%

    übermorgen, 26 Oktober, Donnerstag

    Zeit Temperatur Niederschläge Wind Luftdruck Luftfeuchtigkeit
    00:00 +10°C° 0 mm 3 m/S 767 mmHg 92%
    01:00 +10°C° 0 mm 3 m/S 767 mmHg 92%
    02:00 +9°C° 0 mm 3 m/S 767 mmHg 92%
    03:00 +9°C° 0 mm 3 m/S 767 mmHg 92%
    04:00 +10°C° 0 mm 3 m/S 767 mmHg 92%
    05:00 +10°C° 0 mm 3 m/S 767 mmHg 92%
    06:00 +10°C° 0 mm 3 m/S 767 mmHg 92%
    07:00 +11°C° 0 mm 3 m/S 767 mmHg 90%
    08:00 +12°C° 0 mm 3 m/S 767 mmHg 89%
    09:00 +13°C° 0 mm 4 m/S 767 mmHg 88%
    10:00 +14°C° 0 mm 4 m/S 767 mmHg 84%
    11:00 +15°C° 0 mm 4 m/S 767 mmHg 79%
    12:00 +17°C° 0 mm 4 m/S 767 mmHg 75%
    13:00 +15°C° 0 mm 4 m/S 767 mmHg 77%
    14:00 +15°C° 0 mm 4 m/S 767 mmHg 78%
    15:00 +15°C° 0 mm 4 m/S 767 mmHg 80%
    16:00 +14°C° 0 mm 4 m/S 767 mmHg 83%
    17:00 +13°C° 0 mm 4 m/S 766 mmHg 86%
    18:00 +12°C° 0 mm 4 m/S 766 mmHg 89%
    19:00 +12°C° 0 mm 4 m/S 766 mmHg 88%
    20:00 +12°C° 0 mm 4 m/S 766 mmHg 87%
    21:00 +12°C° 0 mm 4 m/S 766 mmHg 86%
    22:00 +12°C° 0,1 mm 4 m/S 766 mmHg 86%
    23:00 +12°C° 0,1 mm 4 m/S 766 mmHg 87%

    27 Oktober, Freitag

    Zeit Temperatur Niederschläge Wind Luftdruck Luftfeuchtigkeit
    00:00 +12°C° 0,1 mm 4 m/S 766 mmHg 88%
    01:00 +12°C° 0,4 mm 5 m/S 765 mmHg 88%
    02:00 +12°C° 0,4 mm 5 m/S 765 mmHg 89%
    03:00 +10°C° 0,4 mm 5 m/S 765 mmHg 89%
    04:00 +10°C° 0,1 mm 5 m/S 765 mmHg 88%
    05:00 +10°C° 0,1 mm 5 m/S 764 mmHg 87%
    06:00 +10°C° 0,1 mm 5 m/S 764 mmHg 87%
    07:00 +10°C° 0,2 mm 6 m/S 764 mmHg 84%
    08:00 +11°C° 0,2 mm 7 m/S 765 mmHg 81%
    09:00 +11°C° 0,2 mm 8 m/S 765 mmHg 78%
    10:00 +11°C° 0,2 mm 8 m/S 765 mmHg 74%
    11:00 +12°C° 0,2 mm 8 m/S 765 mmHg 71%
    12:00 +12°C° 0,2 mm 9 m/S 765 mmHg 68%
    13:00 +12°C° 0,1 mm 8 m/S 765 mmHg 70%
    14:00 +11°C° 0,1 mm 8 m/S 765 mmHg 73%
    15:00 +11°C° 0,1 mm 8 m/S 765 mmHg 75%
    16:00 +10°C° 0 mm 7 m/S 766 mmHg 78%
    17:00 +10°C° 0 mm 7 m/S 766 mmHg 80%
    18:00 +9°C° 0 mm 6 m/S 766 mmHg 82%
    19:00 +9°C° 0 mm 6 m/S 766 mmHg 81%
    20:00 +9°C° 0 mm 5 m/S 766 mmHg 81%
    21:00 +9°C° 0 mm 5 m/S 767 mmHg 81%
    22:00 +10°C° 0 mm 4 m/S 766 mmHg 81%
    23:00 +10°C° 0 mm 4 m/S 766 mmHg 81%

    28 Oktober, Samstag

    Zeit Temperatur Niederschläge Wind Luftdruck Luftfeuchtigkeit
    00:00 +10°C° 0 mm 4 m/S 766 mmHg 82%
    01:00 +10°C° 0,1 mm 4 m/S 766 mmHg 82%
    02:00 +10°C° 0,1 mm 4 m/S 766 mmHg 82%
    03:00 +9°C° 0,1 mm 5 m/S 765 mmHg 83%
    04:00 +9°C° 0,1 mm 5 m/S 765 mmHg 81%
    05:00 +9°C° 0,1 mm 5 m/S 764 mmHg 80%
    06:00 +8°C° 0,1 mm 5 m/S 764 mmHg 78%
    07:00 +9°C° 0 mm 5 m/S 763 mmHg 77%
    08:00 +9°C° 0 mm 5 m/S 763 mmHg 76%
    09:00 +9°C° 0 mm 6 m/S 762 mmHg 75%
    10:00 +9°C° 0,1 mm 6 m/S 761 mmHg 76%
    11:00 +10°C° 0,1 mm 7 m/S 761 mmHg 76%
    12:00 +10°C° 0,1 mm 7 m/S 760 mmHg 77%
    13:00 +10°C° 0,1 mm 7 m/S 759 mmHg 77%
    14:00 +10°C° 0,1 mm 7 m/S 758 mmHg 77%
    15:00 +10°C° 0,1 mm 7 m/S 758 mmHg 77%
    16:00 +10°C° 0,1 mm 7 m/S 757 mmHg 78%
    17:00 +10°C° 0,1 mm 7 m/S 757 mmHg 79%
    18:00 +9°C° 0,1 mm 7 m/S 757 mmHg 80%
    19:00 +9°C° 0,2 mm 7 m/S 756 mmHg 79%
    20:00 +9°C° 0,2 mm 8 m/S 756 mmHg 78%
    21:00 +9°C° 0,2 mm 8 m/S 756 mmHg 77%
    22:00 +7°C° 0,1 mm 9 m/S 756 mmHg 75%
    23:00 +7°C° 0,1 mm 9 m/S 756 mmHg 73%

    29 Oktober, Sonntag

    Zeit Temperatur Niederschläge Wind Luftdruck Luftfeuchtigkeit
    00:00 +7°C° 0,1 mm 9 m/S 756 mmHg 70%
    01:00 +7°C° 0,2 mm 9 m/S 757 mmHg 71%
    02:00 +7°C° 0,2 mm 9 m/S 757 mmHg 71%
    03:00 +6°C° 0,2 mm 9 m/S 757 mmHg 71%
    04:00 +6°C° 0,1 mm 9 m/S 757 mmHg 71%
    05:00 +6°C° 0,1 mm 9 m/S 757 mmHg 70%
    06:00 +6°C° 0,1 mm 8 m/S 758 mmHg 70%
    07:00 +7°C° 0,1 mm 8 m/S 758 mmHg 68%
    08:00 +7°C° 0,1 mm 8 m/S 759 mmHg 67%
    09:00 +9°C° 0,1 mm 8 m/S 760 mmHg 65%
    10:00 +9°C° 0,1 mm 8 m/S 760 mmHg 64%
    11:00 +9°C° 0,1 mm 8 m/S 761 mmHg 63%
    12:00 +10°C° 0,1 mm 8 m/S 761 mmHg 61%
    13:00 +9°C° 0,1 mm 8 m/S 761 mmHg 63%
    14:00 +9°C° 0,1 mm 7 m/S 761 mmHg 65%
    15:00 +9°C° 0,1 mm 7 m/S 762 mmHg 67%
    16:00 +8°C° 0 mm 6 m/S 762 mmHg 69%
    17:00 +8°C° 0 mm 6 m/S 762 mmHg 70%
    18:00 +8°C° 0 mm 6 m/S 763 mmHg 71%
    19:00 +8°C° 0 mm 6 m/S 763 mmHg 73%
    20:00 +8°C° 0 mm 5 m/S 763 mmHg 74%
    21:00 +8°C° 0 mm 5 m/S 763 mmHg 76%
    22:00 +8°C° 0 mm 4 m/S 763 mmHg 77%
    23:00 +8°C° 0 mm 4 m/S 763 mmHg 78%

    30 Oktober, Montag

    Zeit Temperatur Niederschläge Wind Luftdruck Luftfeuchtigkeit
    00:00 +8°C° 0 mm 4 m/S 763 mmHg 80%
    01:00 +8°C° 0,2 mm 4 m/S 763 mmHg 82%
    02:00 +8°C° 0,2 mm 5 m/S 762 mmHg 83%
    03:00 +8°C° 0,2 mm 5 m/S 762 mmHg 85%
    04:00 +9°C° 0,2 mm 5 m/S 762 mmHg 86%
    05:00 +9°C° 0,2 mm 5 m/S 762 mmHg 88%
    06:00 +9°C° 0,2 mm 5 m/S 762 mmHg 89%
    07:00 +9°C° 0,2 mm 5 m/S 762 mmHg 89%
    08:00 +10°C° 0,2 mm 5 m/S 762 mmHg 89%
    09:00 +10°C° 0,2 mm 5 m/S 762 mmHg 89%
    10:00 +12°C° 0,1 mm 5 m/S 763 mmHg 86%
    11:00 +12°C° 0,1 mm 5 m/S 763 mmHg 83%
    12:00 +13°C° 0,1 mm 5 m/S 763 mmHg 80%
    13:00 +13°C° 0,1 mm 5 m/S 764 mmHg 82%
    14:00 +12°C° 0,1 mm 5 m/S 764 mmHg 84%
    15:00 +12°C° 0,1 mm 4 m/S 764 mmHg 86%
    16:00 +12°C° 0 mm 4 m/S 764 mmHg 88%
    17:00 +11°C° 0 mm 4 m/S 765 mmHg 90%
    18:00 +11°C° 0 mm 4 m/S 765 mmHg 91%
    19:00 +11°C° 0 mm 4 m/S 765 mmHg 91%
    20:00 +11°C° 0 mm 4 m/S 766 mmHg 90%
    21:00 +11°C° 0 mm 4 m/S 766 mmHg 90%
    22:00 +10°C° 0 mm 4 m/S 766 mmHg 90%
    23:00 +10°C° 0 mm 4 m/S 766 mmHg 91%
    Mehr zeigen